Location: Famechon
(49.7599°N, 2.0615°E)
Time: 07:14:36
(UTC+00:00)

IRIDIUM 103 - Pass Details

Date: 03 February 2023
Orbit: 776 x 779 km, 86.4° (Epoch: 24 March)

Event Time Altitude Azimuth Distance (km) Brightness Sun altitude
Rises 18:43:24 0° 355° (N) 3,278 7.6 -18.5°
Reaches altitude 10° 18:45:46 10° 355° (N) 2,345 6.8 -18.9°
Maximum altitude 18:51:02 86° 267° (W) 788 4.3 -19.8°
Drops below altitude 10° 18:56:15 10° 180° (S) 2,325 6.8 -20.6°
Sets 18:58:35 0° 180° (S) 3,248 7.6 -21.0°
